Location: Lafig�re
(44.4503°N, 4.0357°E)
Time: 10:13:21
(UTC+00:00)

Cosmos 2150 Rocket - Pass Details

Date: 22 January 2021
Orbit: 748 x 808 km, 74.0° (Epoch: 07 March)

Event Time Altitude Azimuth Distance (km) Brightness Sun altitude
Exits shadow 05:37:54 - 343° (NNW) 2,981 6.8 -16.7°
Reaches altitude 10° 05:39:35 10° 346° (NNW) 2,343 6.3 -16.4°
Maximum altitude 05:44:51 59° 66° (ENE) 911 4.6 -15.4°
Drops below altitude 10° 05:50:10 10° 146° (SE) 2,365 7.2 -14.5°
Sets 05:52:37 0° 150° (SSE) 3,297 8.0 -14.1°
